GW0353 Weather Reports


time (UTC)temp
F
wind
direction
speed
knots
gust
knots
rain 1hr
in
rain 24hr
in
rain mn
in
humidity
%
barometer
mb
20220930164605 58 33 1.7 3.5 0.00 0.00 0.00 43 1024.2
20220930164101 58 39 0.9 2.6 0.00 0.00 0.00 45 1024.3
20220930163559 58 26 0.9 2.6 0.00 0.00 0.00 44 1024.3
20220930163101 58 349 0.0 2.6 0.00 0.00 0.00 44 1024.3
20220930162556 56 30 1.7 2.6 0.00 0.00 0.00 48 1024.3
20220930162102 56 48 0.9 2.6 0.00 0.00 0.00 46 1024.4
20220930161602 55 0 0.9 1.7 0.00 0.00 0.00 48 1024.4
20220930161056 55 27 0.9 1.7 0.00 0.00 0.00 51 1024.4
20220930160600 54 72 0.0 1.7 0.00 0.00 0.00 52 1024.3
20220930160104 54 0 0.0 1.7 0.00 0.00 0.00 54 1024.5
20220930155559 53 0 0.0 0.0 0.00 0.00 0.00 53 1024.4
20220930155059 52 0 0.0 0.0 0.00 0.00 0.00 54 1024.5
20220930154602 51 0 0.0 0.9 0.00 0.00 0.00 56 1024.5
20220930154059 50 0 0.0 0.9 0.00 0.00 0.00 58 1024.5
20220930153600 50 0 0.0 0.9 0.00 0.00 0.00 61 1024.5
20220930153108 49 104 0.0 0.9 0.00 0.00 0.00 63 1024.6
20220930152559 49 0 0.0 0.9 0.00 0.00 0.00 64 1024.7
20220930152100 48 0 0.0 0.0 0.00 0.00 0.00 67 1024.6
20220930151614 46 0 0.0 0.0 0.00 0.00 0.00 68 1024.8
20220930151059 44 0 0.0 0.0 0.00 0.00 0.00 72 1024.9
20220930150559 42 0 0.0 0.0 0.00 0.00 0.00 75 1024.9
20220930150121 40 0 0.0 0.0 0.00 0.00 0.00 77 1024.9
20220930145602 39 0 0.0 0.0 0.00 0.00 0.00 76 1024.8
20220930145058 39 0 0.0 0.0 0.00 0.00 0.00 74 1024.7
20220930144601 39 0 0.0 0.0 0.00 0.00 0.00 76 1024.7
20220930144058 38 0 0.0 0.9 0.00 0.00 0.00 76 1024.9
20220930143559 38 0 0.0 0.9 0.00 0.00 0.00 75 1024.9
20220930143101 38 0 0.0 0.9 0.00 0.00 0.00 76 1024.9
20220930142610 38 0 0.0 0.0 0.00 0.00 0.00 76 1024.9
20220930142058 38 0 0.0 0.0 0.00 0.00 0.00 77 1024.7
20220930141608 38 0 0.0 0.0 0.00 0.00 0.00 73 1024.7
20220930141059 38 0 0.0 0.9 0.00 0.00 0.00 73 1024.6
20220930140604 38 180 0.0 1.7 0.00 0.00 0.00 73 1024.6
20220930140115 38 160 0.0 1.7 0.00 0.00 0.00 75 1024.6
20220930135559 38 152 0.9 1.7 0.00 0.00 0.00 73 1024.5
20220930135059 38 164 0.0 0.9 0.00 0.00 0.00 75 1024.5
20220930134558 38 0 0.0 0.9 0.00 0.00 0.00 74 1024.6
20220930134100 38 164 0.0 0.9 0.00 0.00 0.00 74 1024.6
20220930133559 38 158 0.0 0.9 0.00 0.00 0.00 75 1024.6
20220930133059 38 163 0.0 0.9 0.00 0.00 0.00 73 1024.7
20220930132559 37 158 0.0 0.9 0.00 0.00 0.00 74 1024.6
20220930132059 38 0 0.0 0.0 0.00 0.00 0.00 74 1024.6
20220930131634 38 0 0.0 0.0 0.00 0.00 0.00 73 1024.7
20220930131102 39 0 0.0 0.0 0.00 0.00 0.00 71 1024.5
20220930130605 39 0 0.0 0.0 0.00 0.00 0.00 70 1024.5
20220930130103 40 0 0.0 0.0 0.00 0.00 0.00 70 1024.5
20220930125558 40 0 0.0 0.9 0.00 0.00 0.00 71 1024.5
20220930125058 40 0 0.0 1.7 0.00 0.00 0.00 72 1024.6
20220930124609 40 174 0.0 1.7 0.00 0.00 0.00 70 1024.7
20220930124058 40 0 0.9 1.7 0.00 0.00 0.00 71 1024.8
20220930123558 40 151 0.0 0.9 0.00 0.00 0.00 71 1024.7
20220930123102 39 0 0.0 0.9 0.00 0.00 0.00 72 1024.8
20220930122558 39 177 0.0 0.9 0.00 0.00 0.00 71 1024.7
20220930122110 39 181 0.0 0.9 0.00 0.00 0.00 71 1024.6
20220930121558 39 0 0.0 0.9 0.00 0.00 0.00 71 1024.6
20220930121100 40 0 0.0 0.9 0.00 0.00 0.00 70 1024.4
20220930120558 40 0 0.0 0.9 0.00 0.00 0.00 70 1024.5
20220930120100 41 0 0.0 0.9 0.00 0.00 0.00 70 1024.5
20220930115557 41 0 0.0 0.9 0.00 0.00 0.00 71 1024.6
20220930115059 41 169 0.0 0.9 0.00 0.00 0.00 69 1024.5
20220930114605 41 0 0.0 0.0 0.00 0.00 0.00 68 1024.6
20220930114100 42 0 0.0 1.7 0.00 0.00 0.00 68 1024.5
20220930113559 42 0 0.0 1.7 0.00 0.00 0.00 69 1024.4
20220930113059 42 0 0.0 1.7 0.00 0.00 0.00 67 1024.4
20220930112558 42 0 0.0 0.9 0.00 0.00 0.00 68 1024.4
20220930112057 42 0 0.0 0.9 0.00 0.00 0.00 68 1024.4
20220930111603 41 166 0.0 0.9 0.00 0.00 0.00 67 1024.4
20220930111101 42 0 0.0 1.7 0.00 0.00 0.00 67 1024.6
20220930110557 41 0 0.0 1.7 0.00 0.00 0.00 67 1024.5
20220930110100 41 171 0.0 0.9 0.00 0.00 0.00 65 1024.6
20220930105606 41 224 0.0 0.9 0.00 0.00 0.00 68 1024.5
20220930105058 41 0 0.0 0.9 0.00 0.00 0.00 68 1024.6
20220930104607 41 0 0.0 1.7 0.00 0.00 0.00 65 1024.4
20220930104059 42 0 0.0 2.6 0.00 0.00 0.00 63 1024.6
20220930103558 43 0 0.9 2.6 0.00 0.00 0.00 64 1024.6
20220930103102 43 0 0.9 1.7 0.00 0.00 0.00 63 1024.7
20220930102558 43 143 0.0 0.9 0.00 0.00 0.00 64 1024.8
20220930102058 44 0 0.0 0.9 0.00 0.00 0.00 59 1024.8
20220930101600 44 0 0.0 0.9 0.00 0.00 0.00 60 1024.7
20220930101058 45 0 0.0 0.9 0.00 0.00 0.00 60 1024.8
20220930100557 44 152 0.0 0.0 0.00 0.00 0.00 59 1024.6
20220930100101 45 0 0.0 0.0 0.00 0.00 0.00 59 1024.6
20220930095557 45 0 0.0 0.9 0.00 0.00 0.00 59 1024.6
20220930095102 45 0 0.0 0.9 0.00 0.00 0.00 58 1024.6
20220930094654 45 0 0.0 0.9 0.00 0.00 0.00 59 1024.7
20220930094057 45 162 0.0 0.9 0.00 0.00 0.00 58 1024.8
20220930093556 46 0 0.0 1.7 0.00 0.00 0.00 58 1024.9
20220930093128 47 143 0.0 1.7 0.00 0.00 0.00 56 1024.9
20220930092604 47 159 0.0 1.7 0.00 0.00 0.00 56 1024.8
20220930092059 48 0 0.0 1.7 0.00 0.00 0.00 55 1024.8
20220930091607 48 0 0.0 1.7 0.00 0.00 0.00 55 1024.9
20220930091058 47 0 0.0 3.5 0.00 0.00 0.00 55 1024.7
20220930090558 47 159 0.9 3.5 0.00 0.00 0.00 55 1024.8
20220930090103 48 165 0.9 1.7 0.00 0.00 0.00 53 1024.8
20220930085558 48 157 0.0 0.9 0.00 0.00 0.00 53 1024.7
20220930085058 48 0 0.0 0.9 0.00 0.00 0.00 54 1024.7
20220930084600 48 0 0.0 0.9 0.00 0.00 0.00 54 1024.7
20220930084059 48 0 0.0 0.9 0.00 0.00 0.00 54 1024.7
20220930083557 48 0 0.0 0.9 0.00 0.00 0.00 54 1024.8
20220930083113 47 168 0.0 0.9 0.00 0.00 0.00 54 1024.9
20220930082557 47 0 0.0 0.9 0.00 0.00 0.00 55 1024.9
20220930082059 47 0 0.0 0.9 0.00 0.00 0.00 55 1024.8
20220930081600 47 0 0.0 0.9 0.00 0.00 0.00 53 1024.7
20220930081059 48 0 0.0 0.9 0.00 0.00 0.00 53 1024.7
20220930080557 48 157 0.0 0.9 0.00 0.00 0.00 53 1024.9
20220930080102 47 0 0.0 0.9 0.00 0.00 0.00 53 1024.8
20220930075558 48 0 0.0 1.7 0.00 0.00 0.00 52 1024.9
20220930075103 48 0 0.0 1.7 0.00 0.00 0.00 52 1024.9
20220930074600 48 0 0.0 1.7 0.00 0.00 0.00 52 1024.8
20220930074059 48 155 0.0 1.7 0.00 0.00 0.00 52 1024.9
20220930073559 48 173 0.9 1.7 0.00 0.00 0.00 52 1025.0
20220930073100 48 210 0.0 1.7 0.00 0.00 0.00 52 1025.1
20220930072558 48 152 0.9 1.7 0.00 0.00 0.00 53 1025.1
20220930072058 48 0 0.0 1.7 0.00 0.00 0.00 52 1025.1
20220930071558 48 0 0.0 0.9 0.00 0.00 0.00 52 1025.1
20220930071059 48 0 0.0 0.9 0.00 0.00 0.00 53 1025.1
20220930070558 49 0 0.0 1.7 0.00 0.00 0.00 51 1025.2
20220930070113 49 0 0.0 1.7 0.00 0.00 0.00 51 1025.2
20220930065558 49 143 0.0 1.7 0.00 0.00 0.00 52 1025.3
20220930065058 50 0 0.0 1.7 0.00 0.00 0.00 51 1025.2
20220930064603 51 161 0.9 1.7 0.00 0.00 0.00 50 1025.3
20220930064104 51 152 0.0 2.6 0.00 0.00 0.00 51 1025.3
20220930063558 51 0 0.0 2.6 0.00 0.00 0.00 50 1025.3
20220930063104 50 156 1.7 2.6 0.00 0.00 0.00 51 1025.3
20220930062557 50 152 1.7 2.6 0.00 0.00 0.00 49 1025.3
20220930062102 50 160 0.0 1.7 0.00 0.00 0.00 50 1025.3
20220930061559 50 152 0.0 1.7 0.00 0.00 0.00 50 1025.3
20220930061101 50 158 0.0 0.0 0.00 0.00 0.00 50 1025.3
20220930060557 50 0 0.0 1.7 0.00 0.00 0.00 49 1025.3
20220930060139 51 0 0.0 1.7 0.00 0.00 0.00 47 1025.3
20220930055558 51 250 0.9 1.7 0.00 0.00 0.00 47 1025.0
20220930055113 51 0 0.0 2.6 0.00 0.00 0.00 46 1025.1
20220930054559 51 0 0.0 4.3 0.00 0.00 0.00 45 1025.0
20220930054056 51 212 1.7 4.3 0.00 0.00 0.00 45 1024.9
20220930053556 51 153 0.9 1.7 0.00 0.00 0.00 45 1024.9
20220930053102 51 0 0.0 0.9 0.00 0.00 0.00 45 1024.9
20220930052601 52 0 0.0 2.6 0.00 0.00 0.00 44 1024.9
20220930052057 52 0 0.0 2.6 0.00 0.00 0.00 44 1024.9
20220930051559 52 158 0.0 1.7 0.00 0.00 0.00 43 1024.9
20220930051058 53 146 0.0 1.7 0.00 0.00 0.00 43 1024.8
20220930050558 52 148 0.0 2.6 0.00 0.00 0.00 43 1024.7
20220930050115 53 160 0.9 2.6 0.00 0.00 0.00 43 1024.8
20220930045557 53 186 0.0 1.7 0.00 0.00 0.00 43 1024.9
20220930045058 53 161 0.0 1.7 0.00 0.00 0.00 43 1024.9
20220930044618 53 155 0.9 1.7 0.00 0.00 0.00 43 1024.9
20220930044057 53 0 0.0 1.7 0.00 0.00 0.00 44 1024.9
20220930043558 53 166 0.0 1.7 0.00 0.00 0.00 43 1024.9
20220930043101 53 148 0.0 0.9 0.00 0.00 0.00 44 1025.1
20220930042605 54 0 0.0 0.9 0.00 0.00 0.00 43 1025.0
20220930042100 54 0 0.0 0.9 0.00 0.00 0.00 43 1025.1
20220930041559 54 0 0.0 1.7 0.00 0.00 0.00 42 1025.1
20220930041056 54 0 0.0 1.7 0.00 0.00 0.00 42 1025.1
20220930040558 55 141 0.9 2.6 0.00 0.00 0.00 43 1024.9
20220930040109 55 0 0.9 2.6 0.00 0.00 0.00 42 1025.0
20220930035559 56 156 0.0 1.7 0.00 0.00 0.00 41 1024.9
20220930035102 56 0 0.0 4.3 0.00 0.00 0.00 43 1025.0
20220930034607 57 0 1.7 4.3 0.00 0.00 0.00 43 1024.7
20220930034059 57 45 0.0 1.7 0.00 0.00 0.00 42 1024.7
20220930033602 58 45 0.0 1.7 0.00 0.00 0.00 42 1024.7
20220930033102 59 57 0.0 0.9 0.00 0.00 0.00 39 1024.6
20220930032558 59 0 0.0 0.9 0.00 0.00 0.00 38 1024.6
20220930032058 59 0 0.0 0.9 0.00 0.00 0.00 38 1024.6
20220930031557 59 0 0.0 0.9 0.00 0.00 0.00 39 1024.7
20220930031058 60 0 0.0 0.9 0.00 0.00 0.00 39 1024.6
20220930030559 60 0 0.0 0.9 0.00 0.00 0.00 41 1024.7
20220930030059 61 0 0.0 0.9 0.00 0.00 0.00 39 1024.6
20220930025559 62 0 0.0 0.9 0.00 0.00 0.00 38 1024.6
20220930025058 62 0 0.0 2.6 0.00 0.00 0.00 37 1024.6
20220930024618 62 175 0.0 2.6 0.00 0.00 0.00 34 1024.5
20220930024058 62 0 0.9 1.7 0.00 0.00 0.00 33 1024.4
20220930023559 62 0 0.0 2.6 0.00 0.00 0.00 33 1024.3
20220930023100 62 130 0.9 2.6 0.00 0.00 0.00 32 1024.3
20220930022555 63 110 0.9 2.6 0.00 0.00 0.00 32 1024.4
20220930022058 63 145 0.0 2.6 0.00 0.00 0.00 32 1024.3
20220930021607 64 125 0.0 2.6 0.00 0.00 0.00 31 1024.2
20220930021058 64 46 0.9 1.7 0.00 0.00 0.00 31 1024.2
20220930020556 64 266 0.0 1.7 0.00 0.00 0.00 34 1024.1
20220930020137 65 0 0.0 8.7 0.00 0.00 0.00 34 1024.0
20220930015555 65 240 1.7 8.7 0.00 0.00 0.00 34 1023.9
20220930015058 66 31 2.6 8.7 0.00 0.00 0.00 32 1023.8
20220930014600 66 0 0.9 1.7 0.00 0.00 0.00 28 1023.7
20220930014109 66 0 0.0 1.7 0.00 0.00 0.00 28 1023.7
20220930013601 67 0 0.0 0.9 0.00 0.00 0.00 28 1023.7
20220930013104 67 0 0.0 0.9 0.00 0.00 0.00 27 1023.6
20220930012558 68 0 0.0 0.9 0.00 0.00 0.00 26 1023.5
20220930012100 68 0 0.0 0.9 0.00 0.00 0.00 26 1023.5
20220930011557 69 0 0.0 0.9 0.00 0.00 0.00 26 1023.5
20220930011105 69 31 0.0 1.7 0.00 0.00 0.00 26 1023.5
20220930010602 70 0 0.0 2.6 0.00 0.00 0.00 25 1023.5
20220930010100 71 0 0.0 2.6 0.00 0.00 0.00 25 1023.5
20220930005605 72 155 0.0 2.6 0.00 0.00 0.00 24 1023.3
20220930005057 73 0 0.0 2.6 0.00 0.00 0.00 23 1023.5
20220930004618 73 0 0.0 2.6 0.00 0.00 0.00 22 1023.5
20220930004057 74 18 0.0 2.6 0.00 0.00 0.00 22 1023.5
20220930003557 74 0 0.0 0.9 0.00 0.00 0.00 22 1023.4
20220930003106 75 0 0.0 6.1 0.00 0.00 0.00 21 1023.4
20220930002557 76 0 0.9 6.1 0.00 0.00 0.00 21 1023.6
20220930002100 76 221 0.9 5.2 0.00 0.00 0.00 20 1023.5
20220930001557 76 186 0.0 5.2 0.00 0.00 0.00 20 1023.5
20220930001058 77 0 0.9 5.2 0.00 0.00 0.00 20 1023.5
20220930000558 77 0 0.0 4.3 0.00 0.00 0.00 19 1023.6
20220930000102 77 246 0.0 4.3 0.00 0.00 0.00 19 1023.5
20220929235558 77 0 0.9 4.3 0.00 0.00 0.00 20 1023.5
20220929235058 78 245 0.9 4.3 0.00 0.00 0.00 19 1023.5
20220929234608 78 0 0.0 3.5 0.00 0.00 0.00 19 1023.5
20220929234058 78 0 0.0 2.6 0.00 0.00 0.00 19 1023.5
20220929233558 78 0 0.9 2.6 0.00 0.00 0.00 18 1023.6
20220929233102 79 354 0.0 2.6 0.00 0.00 0.00 18 1023.7
20220929232601 79 101 0.0 4.3 0.00 0.00 0.00 19 1023.7
20220929232056 78 307 0.9 4.3 0.00 0.00 0.00 18 1023.8
20220929231609 78 322 0.9 4.3 0.00 0.00 0.00 19 1024.0
20220929231100 78 298 1.7 4.3 0.00 0.00 0.00 16 1023.9
20220929230556 78 304 0.9 3.5 0.00 0.00 0.00 17 1023.8
20220929230148 78 0 0.9 3.5 0.00 0.00 0.00 16 1023.9
20220929225559 78 15 0.0 2.6 0.00 0.00 0.00 16 1023.8
20220929225056 78 43 0.9 4.3 0.00 0.00 0.00 16 1023.9
20220929224600 78 245 0.9 4.3 0.00 0.00 0.00 16 1023.9
20220929224059 78 98 0.0 8.7 0.00 0.00 0.00 16 1024.0
20220929223554 77 142 0.0 8.7 0.00 0.00 0.00 16 1024.0
20220929223059 76 78 4.3 8.7 0.00 0.00 0.00 17 1024.0
20220929222557 76 143 3.5 7.8 0.00 0.00 0.00 16 1024.0
20220929222058 76 36 2.6 9.6 0.00 0.00 0.00 17 1024.0
20220929221610 76 104 4.3 11.3 0.00 0.00 0.00 17 1024.0
20220929221058 75 47 5.2 13.0 0.00 0.00 0.00 16 1024.0
20220929220557 76 94 4.3 13.0 0.00 0.00 0.00 17 1024.1
20220929220102 76 31 4.3 9.6 0.00 0.00 0.00 16 1024.0
20220929215555 76 71 4.3 10.4 0.00 0.00 0.00 17 1024.1
20220929215105 76 41 4.3 11.3 0.00 0.00 0.00 17 1024.1
20220929214616 76 87 4.3 13.0 0.00 0.00 0.00 17 1024.2
20220929214058 76 77 7.0 13.0 0.00 0.00 0.00 16 1024.2
20220929213558 76 172 4.3 11.3 0.00 0.00 0.00 17 1024.2
20220929213107 76 41 6.1 11.3 0.00 0.00 0.00 16 1024.2
20220929212603 76 0 2.6 9.6 0.00 0.00 0.00 16 1024.2
20220929212102 76 122 5.2 12.2 0.00 0.00 0.00 16 1024.4
20220929211601 76 88 5.2 12.2 0.00 0.00 0.00 16 1024.5
20220929211057 76 65 6.1 12.2 0.00 0.00 0.00 17 1024.5
20220929210557 76 14 2.6 10.4 0.00 0.00 0.00 17 1024.6
20220929210124 76 91 4.3 9.6 0.00 0.00 0.00 16 1024.6
20220929205600 76 333 3.5 9.6 0.00 0.00 0.00 16 1024.7
20220929205055 76 70 4.3 12.2 0.00 0.00 0.00 17 1024.8
20220929204649 76 84 4.3 12.2 0.00 0.00 0.00 17 1024.9
20220929204057 77 67 4.3 11.3 0.00 0.00 0.00 18 1025.0
20220929203559 77 341 3.5 9.6 0.00 0.00 0.00 16 1025.0
20220929203116 77 31 2.6 8.7 0.00 0.00 0.00 15 1025.1
20220929202558 77 0 2.6 8.7 0.00 0.00 0.00 15 1025.1
20220929202100 77 36 3.5 7.8 0.00 0.00 0.00 14 1025.1
20220929201600 77 302 2.6 7.8 0.00 0.00 0.00 14 1025.2
20220929201057 78 274 1.7 3.5 0.00 0.00 0.00 14 1025.3
20220929200559 79 0 0.9 7.0 0.00 0.00 0.00 13 1025.4
20220929200105 78 291 0.9 7.0 0.00 0.00 0.00 14 1025.5
20220929195600 77 39 2.6 7.0 0.00 0.00 0.00 14 1025.7
20220929195059 77 252 1.7 7.0 0.00 0.00 0.00 13 1025.7
20220929194637 77 214 0.9 6.1 0.00 0.00 0.00 15 1025.7
20220929194102 77 17 3.5 6.1 0.00 0.00 0.00 14 1025.9
20220929193556 78 8 1.7 5.2 0.00 0.00 0.00 14 1026.2
20220929193130 77 4 1.7 6.1 0.00 0.00 0.00 15 1026.2
20220929192558 77 332 0.9 7.0 0.00 0.00 0.00 16 1026.2
20220929192059 76 235 4.3 7.0 0.00 0.00 0.00 17 1026.2
20220929191606 77 351 0.9 6.1 0.00 0.00 0.00 16 1026.2
20220929191059 76 315 1.7 4.3 0.00 0.00 0.00 17 1026.3
20220929190600 76 304 1.7 5.2 0.00 0.00 0.00 16 1026.2
20220929190107 75 310 0.9 5.2 0.00 0.00 0.00 18 1026.5
20220929185558 76 279 1.7 4.3 0.00 0.00 0.00 17 1026.6
20220929185100 76 272 0.9 5.2 0.00 0.00 0.00 17 1026.6
20220929184600 76 267 0.9 5.2 0.00 0.00 0.00 19 1026.6
20220929184057 74 34 2.6 5.2 0.00 0.00 0.00 20 1026.8
20220929183600 74 37 1.7 5.2 0.00 0.00 0.00 19 1026.9
20220929183114 74 291 1.7 4.3 0.00 0.00 0.00 18 1026.9
20220929182607 74 60 0.9 4.3 0.00 0.00 0.00 19 1027.0
20220929182057 73 314 0.0 4.3 0.00 0.00 0.00 20 1027.0
20220929181605 73 31 2.6 4.3 0.00 0.00 0.00 20 1027.1
20220929181100 74 0 0.0 3.5 0.00 0.00 0.00 20 1027.1
20220929180600 74 253 0.0 3.5 0.00 0.00 0.00 20 1027.3
20220929180101 74 233 0.0 2.6 0.00 0.00 0.00 19 1027.4
20220929175559 73 0 0.0 4.3 0.00 0.00 0.00 21 1027.4
20220929175103 72 297 0.9 4.3 0.00 0.00 0.00 21 1027.5
20220929174605 72 56 0.9 3.5 0.00 0.00 0.00 21 1027.6
20220929174101 72 282 0.0 3.5 0.00 0.00 0.00 21 1027.6
20220929173557 71 291 0.0 3.5 0.00 0.00 0.00 21 1027.5
20220929173133 71 14 0.9 3.5 0.00 0.00 0.00 23 1027.7
20220929172559 70 284 0.9 3.5 0.00 0.00 0.00 25 1027.7
20220929172105 70 24 1.7 3.5 0.00 0.00 0.00 23 1027.9
20220929171604 70 7 0.0 4.3 0.00 0.00 0.00 24 1028.0
20220929171058 69 0 1.7 4.3 0.00 0.00 0.00 24 1028.0
20220929170557 69 32 0.0 3.5 0.00 0.00 0.00 27 1028.0
20220929170059 69 0 0.9 4.3 0.00 0.00 0.00 26 1028.1
20220929165557 69 262 0.0 4.3 0.00 0.00 0.00 31 1028.2
20220929165055 68 49 0.9 2.6 0.00 0.00 0.00 25 1028.2